| time (UTC) | temp C | wind direction | speed KPH | gust KPH | rain 1hr cm | rain 24hr cm | rain mn cm | humidity % | barometer mb |
| 20260505221701 | 28 | 223 | 1.6 | 9.7 | 0.00 | 0.00 | 0.00 | 75 | 1007.4 |
| 20260505221157 | 28 | 219 | 3.2 | 6.4 | 0.00 | 0.00 | 0.00 | 75 | 1007.6 |
| 20260505220654 | 28 | 226 | 3.2 | 20.9 | 0.00 | 0.00 | 0.00 | 75 | 1007.4 |
| 20260505220152 | 28 | 203 | 4.8 | 9.7 | 0.00 | 0.00 | 0.00 | 76 | 1007.4 |
| 20260505215649 | 28 | 260 | 6.4 | 9.7 | 0.00 | 0.00 | 0.00 | 75 | 1007.6 |
| 20260505215147 | 28 | 204 | 3.2 | 9.7 | 0.00 | 0.00 | 0.00 | 75 | 1007.7 |
| 20260505214645 | 28 | 193 | 4.8 | 6.4 | 0.00 | 0.00 | 0.00 | 75 | 1007.6 |
| 20260505214142 | 28 | 227 | 4.8 | 14.5 | 0.00 | 0.00 | 0.00 | 75 | 1008.0 |
| 20260505213640 | 28 | 238 | 4.8 | 12.9 | 0.00 | 0.00 | 0.00 | 75 | 1008.2 |
| 20260505213136 | 28 | 287 | 6.4 | 11.3 | 0.00 | 0.00 | 0.00 | 74 | 1008.0 |
| 20260505212632 | 28 | 215 | 4.8 | 14.5 | 0.00 | 0.00 | 0.00 | 74 | 1008.2 |
| 20260505212130 | 28 | 211 | 6.4 | 11.3 | 0.00 | 0.00 | 0.00 | 74 | 1008.0 |
| 20260505211627 | 28 | 219 | 6.4 | 12.9 | 0.00 | 0.00 | 0.00 | 74 | 1008.3 |
| 20260505211124 | 28 | 225 | 3.2 | 9.7 | 0.00 | 0.00 | 0.00 | 74 | 1008.0 |
| 20260505210620 | 28 | 202 | 6.4 | 14.5 | 0.00 | 0.00 | 0.00 | 75 | 1008.3 |
| 20260505210117 | 28 | 156 | 8.0 | 11.3 | 0.00 | 0.00 | 0.00 | 75 | 1008.3 |
| 20260505205615 | 29 | 210 | 6.4 | 11.3 | 0.00 | 0.00 | 0.00 | 73 | 1008.4 |
| 20260505205113 | 28 | 149 | 1.6 | 9.7 | 0.00 | 0.00 | 0.00 | 75 | 1008.4 |
| 20260505204609 | 28 | 241 | 3.2 | 12.9 | 0.00 | 0.00 | 0.00 | 75 | 1008.5 |
| 20260505204107 | 28 | 214 | 6.4 | 12.9 | 0.00 | 0.00 | 0.00 | 75 | 1008.4 |
| 20260505203603 | 29 | 202 | 3.2 | 9.7 | 0.00 | 0.00 | 0.00 | 74 | 1008.6 |
| 20260505203101 | 29 | 235 | 6.4 | 11.3 | 0.00 | 0.00 | 0.00 | 74 | 1008.6 |
| 20260505202556 | 28 | 158 | 6.4 | 9.7 | 0.00 | 0.00 | 0.00 | 77 | 1008.7 |
| 20260505202052 | 28 | 235 | 6.4 | 14.5 | 0.00 | 0.00 | 0.00 | 77 | 1008.9 |
| 20260505201549 | 28 | 231 | 1.6 | 6.4 | 0.00 | 0.00 | 0.00 | 76 | 1008.8 |
| 20260505201047 | 28 | 218 | 3.2 | 16.1 | 0.00 | 0.00 | 0.00 | 76 | 1009.1 |
| 20260505200545 | 28 | 233 | 3.2 | 14.5 | 0.00 | 0.00 | 0.00 | 74 | 1009.0 |
| 20260505200041 | 28 | 191 | 4.8 | 14.5 | 0.00 | 0.00 | 0.00 | 75 | 1009.2 |
| 20260505195537 | 29 | 222 | 3.2 | 6.4 | 0.00 | 0.00 | 0.00 | 75 | 1009.2 |
| 20260505195035 | 28 | 208 | 3.2 | 11.3 | 0.00 | 0.00 | 0.00 | 74 | 1009.2 |
| 20260505194532 | 28 | 186 | 4.8 | 14.5 | 0.00 | 0.00 | 0.00 | 75 | 1009.4 |
| 20260505194027 | 28 | 231 | 3.2 | 11.3 | 0.00 | 0.00 | 0.00 | 74 | 1009.4 |
| 20260505193525 | 28 | 209 | 4.8 | 6.4 | 0.00 | 0.00 | 0.00 | 75 | 1009.5 |
| 20260505193022 | 28 | 243 | 3.2 | 9.7 | 0.00 | 0.00 | 0.00 | 75 | 1009.5 |
| 20260505192521 | 28 | 191 | 8.0 | 14.5 | 0.00 | 0.00 | 0.00 | 76 | 1009.4 |
| 20260505192018 | 28 | 187 | 4.8 | 9.7 | 0.00 | 0.00 | 0.00 | 76 | 1009.4 |
| 20260505191516 | 27 | 229 | 6.4 | 12.9 | 0.00 | 0.00 | 0.00 | 77 | 1009.5 |
| 20260505191014 | 28 | 198 | 6.4 | 11.3 | 0.00 | 0.00 | 0.00 | 77 | 1009.7 |
| 20260505190508 | 28 | 208 | 9.7 | 16.1 | 0.00 | 0.00 | 0.00 | 76 | 1009.5 |
| 20260505190004 | 28 | 226 | 4.8 | 9.7 | 0.00 | 0.00 | 0.00 | 77 | 1009.6 |
| 20260505185501 | 28 | 207 | 3.2 | 6.4 | 0.00 | 0.00 | 0.00 | 77 | 1009.7 |
| 20260505184957 | 28 | 261 | 6.4 | 12.9 | 0.00 | 0.00 | 0.00 | 77 | 1009.8 |
| 20260505184454 | 28 | 208 | 3.2 | 11.3 | 0.00 | 0.00 | 0.00 | 78 | 1009.8 |
| 20260505183950 | 28 | 223 | 0.0 | 9.7 | 0.00 | 0.00 | 0.00 | 79 | 1009.6 |
| 20260505183448 | 27 | 179 | 3.2 | 6.4 | 0.00 | 0.00 | 0.00 | 81 | 1009.8 |
| 20260505182944 | 26 | 209 | 6.4 | 9.7 | 0.00 | 0.00 | 0.00 | 82 | 1009.8 |
| 20260505182442 | 26 | 282 | 3.2 | 6.4 | 0.00 | 0.00 | 0.00 | 83 | 1010.0 |
| 20260505181937 | 26 | 192 | 3.2 | 6.4 | 0.00 | 0.00 | 0.00 | 84 | 1010.1 |
| 20260505181435 | 26 | 212 | 3.2 | 4.8 | 0.00 | 0.00 | 0.00 | 84 | 1009.9 |
| 20260505180932 | 26 | 218 | 6.4 | 9.7 | 0.00 | 0.00 | 0.00 | 84 | 1010.0 |
| 20260505180428 | 26 | 257 | 6.4 | 9.7 | 0.00 | 0.00 | 0.00 | 83 | 1010.0 |
| 20260505175925 | 26 | 236 | 3.2 | 4.8 | 0.00 | 0.00 | 0.00 | 83 | 1010.0 |
| 20260505175421 | 26 | 255 | 6.4 | 9.7 | 0.00 | 0.00 | 0.00 | 83 | 1010.1 |
| 20260505174918 | 26 | 243 | 4.8 | 9.7 | 0.00 | 0.00 | 0.00 | 84 | 1010.1 |
| 20260505174415 | 26 | 257 | 4.8 | 9.7 | 0.00 | 0.00 | 0.00 | 84 | 1010.1 |
| 20260505173912 | 26 | 222 | 6.4 | 9.7 | 0.00 | 0.00 | 0.00 | 84 | 1010.2 |
| 20260505173408 | 26 | 206 | 1.6 | 14.5 | 0.00 | 0.00 | 0.00 | 83 | 1010.3 |
| 20260505172905 | 26 | 248 | 8.0 | 12.9 | 0.00 | 0.00 | 0.00 | 83 | 1010.1 |
| 20260505172357 | 26 | 150 | 3.2 | 9.7 | 0.00 | 0.00 | 0.00 | 83 | 1010.2 |
| 20260505171857 | 26 | 233 | 6.4 | 12.9 | 0.00 | 0.00 | 0.00 | 83 | 1010.2 |
| 20260505171353 | 26 | 167 | 6.4 | 12.9 | 0.00 | 0.00 | 0.00 | 84 | 1010.3 |
| 20260505170850 | 26 | 166 | 4.8 | 11.3 | 0.00 | 0.00 | 0.00 | 85 | 1010.3 |
| 20260505170347 | 26 | 226 | 1.6 | 11.3 | 0.00 | 0.00 | 0.00 | 84 | 1010.4 |
| 20260505165842 | 26 | 142 | 6.4 | 11.3 | 0.00 | 0.00 | 0.00 | 85 | 1010.5 |
| 20260505165339 | 26 | 233 | 6.4 | 14.5 | 0.00 | 0.00 | 0.00 | 84 | 1010.4 |
| 20260505164834 | 26 | 173 | 3.2 | 11.3 | 0.00 | 0.00 | 0.00 | 85 | 1010.5 |
| 20260505164331 | 26 | 245 | 1.6 | 14.5 | 0.00 | 0.00 | 0.00 | 85 | 1010.6 |
| 20260505163829 | 26 | 232 | 0.0 | 6.4 | 0.00 | 0.00 | 0.00 | 85 | 1010.5 |
| 20260505163328 | 25 | 222 | 4.8 | 9.7 | 0.00 | 0.00 | 0.00 | 85 | 1010.6 |
| 20260505162826 | 25 | 230 | 1.6 | 4.8 | 0.00 | 0.00 | 0.00 | 86 | 1010.8 |
| 20260505162321 | 25 | 204 | 1.6 | 11.3 | 0.00 | 0.00 | 0.00 | 87 | 1010.5 |
| 20260505161819 | 25 | 186 | 3.2 | 6.4 | 0.00 | 0.00 | 0.00 | 87 | 1010.6 |
| 20260505161317 | 25 | 193 | 4.8 | 6.4 | 0.00 | 0.00 | 0.00 | 88 | 1010.7 |
| 20260505160814 | 25 | 240 | 6.4 | 9.7 | 0.00 | 0.00 | 0.00 | 88 | 1010.5 |
| 20260505160311 | 25 | 243 | 3.2 | 4.8 | 0.00 | 0.00 | 0.00 | 88 | 1010.4 |
| 20260505153250 | 25 | 152 | 4.8 | 12.9 | 0.00 | 0.00 | 0.00 | 87 | 1010.1 |
| 20260505152747 | 25 | 227 | 6.4 | 11.3 | 0.00 | 0.00 | 0.00 | 87 | 1010.1 |
| 20260505152243 | 25 | 228 | 4.8 | 6.4 | 0.00 | 0.00 | 0.00 | 87 | 1010.3 |
| 20260505151738 | 25 | 206 | 3.2 | 9.7 | 0.00 | 0.00 | 0.00 | 87 | 1010.3 |
| 20260505151236 | 25 | 222 | 3.2 | 6.4 | 0.00 | 0.00 | 0.00 | 87 | 1010.2 |
| 20260505150732 | 25 | 202 | 1.6 | 12.9 | 0.00 | 0.00 | 0.00 | 87 | 1010.1 |
| 20260505150230 | 24 | 200 | 3.2 | 9.7 | 0.00 | 0.00 | 0.00 | 88 | 1010.2 |
| 20260505140159 | 23 | 220 | 1.6 | 11.3 | 0.00 | 0.00 | 0.00 | 91 | 1009.8 |
| 20260505130123 | 22 | 208 | 1.6 | 6.4 | 0.00 | 0.00 | 0.00 | 94 | 1009.8 |
| 20260505124613 | 22 | 155 | 4.8 | 6.4 | 0.00 | 0.00 | 0.00 | 95 | 1009.8 |
| 20260505124109 | 21 | 203 | 3.2 | 6.4 | 0.00 | 0.00 | 0.00 | 95 | 1009.4 |
| 20260505123605 | 21 | 189 | 1.6 | 6.4 | 0.00 | 0.00 | 0.00 | 95 | 1009.5 |
| 20260505123102 | 21 | 208 | 3.2 | 3.2 | 0.00 | 0.00 | 0.00 | 95 | 1009.4 |
| 20260505122558 | 21 | 185 | 1.6 | 4.8 | 0.00 | 0.00 | 0.00 | 96 | 1009.7 |
| 20260505122056 | 21 | 219 | 1.6 | 6.4 | 0.00 | 0.00 | 0.00 | 96 | 1009.7 |
| 20260505121552 | 21 | 202 | 1.6 | 3.2 | 0.00 | 0.00 | 0.00 | 96 | 1009.7 |
| 20260505121049 | 21 | 191 | 0.0 | 3.2 | 0.00 | 0.00 | 0.00 | 96 | 1009.6 |
| 20260505120545 | 21 | 208 | 1.6 | 11.3 | 0.00 | 0.00 | 0.00 | 96 | 1009.7 |
| 20260505120041 | 21 | 213 | 0.0 | 1.6 | 0.00 | 0.00 | 0.00 | 96 | 1009.6 |
| 20260505115536 | 21 | 186 | 3.2 | 6.4 | 0.00 | 0.00 | 0.00 | 96 | 1009.2 |
| 20260505115034 | 21 | 233 | 1.6 | 4.8 | 0.00 | 0.00 | 0.00 | 96 | 1009.3 |
| 20260505114531 | 21 | 232 | 4.8 | 6.4 | 0.00 | 0.00 | 0.00 | 96 | 1009.3 |
| 20260505114027 | 21 | 191 | 1.6 | 3.2 | 0.00 | 0.00 | 0.00 | 96 | 1009.2 |
| 20260505113523 | 21 | 197 | 1.6 | 3.2 | 0.00 | 0.00 | 0.00 | 96 | 1009.2 |
| 20260505113020 | 21 | 222 | 1.6 | 3.2 | 0.00 | 0.00 | 0.00 | 96 | 1009.5 |
| 20260505112517 | 21 | 205 | 1.6 | 4.8 | 0.00 | 0.00 | 0.00 | 96 | 1009.8 |
| 20260505112015 | 21 | 220 | 0.0 | 3.2 | 0.00 | 0.00 | 0.00 | 95 | 1009.5 |
| 20260505111513 | 21 | 215 | 0.0 | 3.2 | 0.00 | 0.00 | 0.00 | 95 | 1009.3 |
| 20260505111010 | 21 | 204 | 1.6 | 4.8 | 0.00 | 0.00 | 0.00 | 95 | 1009.5 |
| 20260505110507 | 21 | 212 | 1.6 | 4.8 | 0.00 | 0.00 | 0.00 | 95 | 1009.4 |
| 20260505101933 | 21 | 201 | 0.0 | 1.6 | 0.00 | 0.00 | 0.00 | 95 | 1009.5 |
| 20260505101432 | 21 | 209 | 0.0 | 1.6 | 0.00 | 0.00 | 0.00 | 95 | 1009.4 |
| 20260505100928 | 21 | 185 | 1.6 | 3.2 | 0.00 | 0.00 | 0.00 | 95 | 1009.5 |
| 20260505100425 | 21 | 196 | 1.6 | 1.6 | 0.00 | 0.00 | 0.00 | 95 | 1009.5 |
| 20260505095921 | 21 | 196 | 0.0 | 3.2 | 0.00 | 0.00 | 0.00 | 95 | 1009.3 |
| 20260505095418 | 20 | 188 | 4.8 | 6.4 | 0.00 | 0.00 | 0.00 | 95 | 1009.5 |
| 20260505094914 | 20 | 202 | 0.0 | 1.6 | 0.00 | 0.00 | 0.00 | 95 | 1009.6 |
| 20260505094411 | 20 | 198 | 1.6 | 1.6 | 0.00 | 0.00 | 0.00 | 95 | 1009.7 |
| 20260505093907 | 21 | 192 | 0.0 | 3.2 | 0.00 | 0.00 | 0.00 | 94 | 1009.4 |
| 20260505093404 | 20 | 197 | 1.6 | 3.2 | 0.00 | 0.00 | 0.00 | 94 | 1009.5 |
| 20260505092901 | 21 | 201 | 1.6 | 1.6 | 0.00 | 0.00 | 0.00 | 94 | 1009.6 |
| 20260505092359 | 21 | 213 | 1.6 | 1.6 | 0.00 | 0.00 | 0.00 | 94 | 1009.7 |
| 20260505091856 | 21 | 203 | 1.6 | 1.6 | 0.00 | 0.00 | 0.00 | 94 | 1009.6 |
| 20260505091354 | 21 | 199 | 0.0 | 1.6 | 0.00 | 0.00 | 0.00 | 94 | 1009.6 |
| 20260505090852 | 21 | 193 | 1.6 | 3.2 | 0.00 | 0.00 | 0.00 | 94 | 1009.9 |
| 20260505090350 | 20 | 202 | 1.6 | 1.6 | 0.00 | 0.00 | 0.00 | 94 | 1009.9 |
| 20260505085847 | 20 | 209 | 1.6 | 3.2 | 0.00 | 0.00 | 0.00 | 94 | 1009.9 |
| 20260505085345 | 20 | 216 | 1.6 | 3.2 | 0.00 | 0.00 | 0.00 | 94 | 1009.9 |
| 20260505084842 | 20 | 201 | 0.0 | 1.6 | 0.00 | 0.00 | 0.00 | 94 | 1009.7 |
| 20260505084341 | 21 | 214 | 1.6 | 3.2 | 0.00 | 0.00 | 0.00 | 93 | 1009.8 |
| 20260505083838 | 21 | 229 | 0.0 | 6.4 | 0.00 | 0.00 | 0.00 | 93 | 1009.9 |
| 20260505083335 | 21 | 199 | 1.6 | 3.2 | 0.00 | 0.00 | 0.00 | 93 | 1009.8 |
| 20260505082831 | 21 | 215 | 1.6 | 3.2 | 0.00 | 0.00 | 0.00 | 92 | 1009.9 |
| 20260505082328 | 21 | 197 | 0.0 | 0.0 | 0.00 | 0.00 | 0.00 | 92 | 1010.1 |
| 20260505081824 | 21 | 224 | 3.2 | 6.4 | 0.00 | 0.00 | 0.00 | 92 | 1010.1 |
| 20260505081321 | 21 | 201 | 1.6 | 1.6 | 0.00 | 0.00 | 0.00 | 92 | 1010.0 |
| 20260505080818 | 21 | 204 | 1.6 | 3.2 | 0.00 | 0.00 | 0.00 | 91 | 1010.2 |
| 20260505080314 | 21 | 209 | 1.6 | 6.4 | 0.00 | 0.00 | 0.00 | 91 | 1010.0 |
| 20260505075809 | 21 | 206 | 1.6 | 3.2 | 0.00 | 0.00 | 0.00 | 91 | 1010.3 |
| 20260505075307 | 21 | 185 | 1.6 | 3.2 | 0.00 | 0.00 | 0.00 | 91 | 1010.4 |
| 20260505074804 | 21 | 251 | 3.2 | 4.8 | 0.00 | 0.00 | 0.00 | 91 | 1010.3 |
| 20260505074301 | 21 | 194 | 0.0 | 4.8 | 0.00 | 0.00 | 0.00 | 91 | 1010.3 |
| 20260505073758 | 21 | 168 | 3.2 | 3.2 | 0.00 | 0.00 | 0.00 | 91 | 1010.6 |
| 20260505073256 | 21 | 226 | 1.6 | 6.4 | 0.00 | 0.00 | 0.00 | 91 | 1010.3 |
| 20260505072753 | 21 | 178 | 1.6 | 4.8 | 0.00 | 0.00 | 0.00 | 91 | 1010.4 |
| 20260505072249 | 21 | 213 | 0.0 | 3.2 | 0.00 | 0.00 | 0.00 | 90 | 1010.4 |
| 20260505071745 | 21 | 223 | 3.2 | 3.2 | 0.00 | 0.00 | 0.00 | 90 | 1010.5 |
| 20260505071241 | 21 | 200 | 1.6 | 4.8 | 0.00 | 0.00 | 0.00 | 90 | 1010.5 |
| 20260505070739 | 21 | 203 | 1.6 | 3.2 | 0.00 | 0.00 | 0.00 | 90 | 1010.7 |
| 20260505070235 | 21 | 188 | 1.6 | 6.4 | 0.00 | 0.00 | 0.00 | 90 | 1010.7 |
| 20260505065731 | 21 | 172 | 3.2 | 4.8 | 0.00 | 0.00 | 0.00 | 89 | 1010.8 |
| 20260505065228 | 21 | 186 | 3.2 | 4.8 | 0.00 | 0.00 | 0.00 | 89 | 1010.8 |
| 20260505064725 | 21 | 225 | 1.6 | 6.4 | 0.00 | 0.00 | 0.00 | 89 | 1010.8 |
| 20260505064223 | 21 | 229 | 3.2 | 4.8 | 0.00 | 0.00 | 0.00 | 90 | 1010.9 |
| 20260505063721 | 21 | 217 | 1.6 | 4.8 | 0.00 | 0.00 | 0.00 | 89 | 1010.9 |
| 20260505063217 | 21 | 203 | 1.6 | 3.2 | 0.00 | 0.00 | 0.00 | 89 | 1010.8 |
| 20260505062713 | 21 | 210 | 1.6 | 6.4 | 0.00 | 0.00 | 0.00 | 89 | 1010.9 |
| 20260505062211 | 21 | 211 | 1.6 | 3.2 | 0.00 | 0.00 | 0.00 | 89 | 1011.1 |
| 20260505061707 | 21 | 238 | 3.2 | 3.2 | 0.00 | 0.00 | 0.00 | 89 | 1011.1 |
| 20260505061206 | 21 | 217 | 1.6 | 6.4 | 0.00 | 0.00 | 0.00 | 88 | 1011.1 |
| 20260505060703 | 21 | 180 | 1.6 | 4.8 | 0.00 | 0.00 | 0.00 | 88 | 1011.1 |
| 20260505060200 | 21 | 215 | 4.8 | 6.4 | 0.00 | 0.00 | 0.00 | 88 | 1011.1 |
| 20260505055655 | 21 | 199 | 3.2 | 6.4 | 0.00 | 0.00 | 0.00 | 88 | 1011.2 |
| 20260505055151 | 21 | 202 | 3.2 | 4.8 | 0.00 | 0.00 | 0.00 | 88 | 1011.1 |
| 20260505054649 | 21 | 175 | 4.8 | 6.4 | 0.00 | 0.00 | 0.00 | 88 | 1011.2 |
| 20260505054147 | 21 | 204 | 0.0 | 3.2 | 0.00 | 0.00 | 0.00 | 88 | 1011.1 |
| 20260505053644 | 21 | 181 | 1.6 | 4.8 | 0.00 | 0.00 | 0.00 | 87 | 1011.3 |
| 20260505053140 | 21 | 189 | 3.2 | 4.8 | 0.00 | 0.00 | 0.00 | 87 | 1011.5 |
| 20260505052638 | 21 | 191 | 1.6 | 3.2 | 0.00 | 0.00 | 0.00 | 87 | 1011.4 |
| 20260505052135 | 21 | 203 | 4.8 | 6.4 | 0.00 | 0.00 | 0.00 | 87 | 1011.5 |
| 20260505051631 | 21 | 215 | 3.2 | 4.8 | 0.00 | 0.00 | 0.00 | 86 | 1011.6 |
| 20260505051130 | 21 | 203 | 3.2 | 4.8 | 0.00 | 0.00 | 0.00 | 86 | 1011.5 |
| 20260505050627 | 21 | 205 | 3.2 | 9.7 | 0.00 | 0.00 | 0.00 | 86 | 1011.4 |
| 20260505050125 | 21 | 203 | 3.2 | 6.4 | 0.00 | 0.00 | 0.00 | 86 | 1011.5 |
| 20260505041555 | 21 | 210 | 3.2 | 12.9 | 0.00 | 0.00 | 0.00 | 84 | 1011.6 |
| 20260505041052 | 22 | 209 | 3.2 | 12.9 | 0.00 | 0.00 | 0.00 | 83 | 1011.5 |
| 20260505040549 | 22 | 232 | 6.4 | 12.9 | 0.00 | 0.00 | 0.00 | 83 | 1011.3 |
| 20260505040046 | 22 | 244 | 4.8 | 14.5 | 0.00 | 0.00 | 0.00 | 83 | 1011.5 |
| 20260505035542 | 22 | 178 | 8.0 | 9.7 | 0.00 | 0.00 | 0.00 | 82 | 1011.6 |
| 20260505035040 | 22 | 115 | 8.0 | 11.3 | 0.00 | 0.00 | 0.00 | 82 | 1011.7 |
| 20260505034536 | 22 | 203 | 1.6 | 6.4 | 0.00 | 0.00 | 0.00 | 82 | 1011.7 |
| 20260505034033 | 22 | 201 | 11.3 | 12.9 | 0.00 | 0.00 | 0.00 | 81 | 1011.5 |
| 20260505033530 | 22 | 171 | 4.8 | 14.5 | 0.00 | 0.00 | 0.00 | 81 | 1011.6 |
| 20260505033028 | 22 | 215 | 1.6 | 6.4 | 0.00 | 0.00 | 0.00 | 81 | 1011.8 |
| 20260505032525 | 22 | 201 | 3.2 | 9.7 | 0.00 | 0.00 | 0.00 | 81 | 1011.9 |
| 20260505032022 | 22 | 165 | 1.6 | 11.3 | 0.00 | 0.00 | 0.00 | 81 | 1011.7 |
| 20260505031519 | 22 | 206 | 4.8 | 11.3 | 0.00 | 0.00 | 0.00 | 81 | 1011.9 |
| 20260505031015 | 22 | 183 | 4.8 | 9.7 | 0.00 | 0.00 | 0.00 | 81 | 1011.7 |
| 20260505030512 | 22 | 270 | 4.8 | 14.5 | 0.00 | 0.00 | 0.00 | 80 | 1011.7 |
| 20260505030008 | 22 | 246 | 6.4 | 11.3 | 0.00 | 0.00 | 0.00 | 80 | 1011.6 |
| 20260505025504 | 22 | 180 | 3.2 | 6.4 | 0.00 | 0.00 | 0.00 | 80 | 1011.6 |
| 20260505025004 | 22 | 184 | 3.2 | 9.7 | 0.00 | 0.00 | 0.00 | 79 | 1011.3 |
| 20260505024500 | 22 | 217 | 3.2 | 4.8 | 0.00 | 0.00 | 0.00 | 79 | 1011.4 |
| 20260505023957 | 22 | 220 | 3.2 | 6.4 | 0.00 | 0.00 | 0.00 | 79 | 1011.3 |
| 20260505023454 | 23 | 262 | 6.4 | 9.7 | 0.00 | 0.00 | 0.00 | 78 | 1011.4 |
| 20260505022952 | 23 | 207 | 4.8 | 6.4 | 0.00 | 0.00 | 0.00 | 78 | 1011.6 |
| 20260505022449 | 23 | 165 | 4.8 | 12.9 | 0.00 | 0.00 | 0.00 | 77 | 1011.6 |
| 20260505021946 | 23 | 262 | 9.7 | 12.9 | 0.00 | 0.00 | 0.00 | 77 | 1011.5 |
| 20260505021442 | 23 | 219 | 3.2 | 4.8 | 0.00 | 0.00 | 0.00 | 77 | 1011.4 |
| 20260505020938 | 23 | 194 | 3.2 | 12.9 | 0.00 | 0.00 | 0.00 | 77 | 1011.4 |
| 20260505020433 | 23 | 194 | 3.2 | 14.5 | 0.00 | 0.00 | 0.00 | 76 | 1011.2 |
| 20260505015931 | 23 | 230 | 3.2 | 4.8 | 0.00 | 0.00 | 0.00 | 77 | 1011.4 |
| 20260505015428 | 23 | 206 | 0.0 | 11.3 | 0.00 | 0.00 | 0.00 | 77 | 1011.2 |
| 20260505014925 | 23 | 222 | 3.2 | 9.7 | 0.00 | 0.00 | 0.00 | 77 | 1011.2 |
| 20260505014422 | 23 | 194 | 1.6 | 6.4 | 0.00 | 0.00 | 0.00 | 77 | 1011.1 |
| 20260505013919 | 23 | 232 | 4.8 | 6.4 | 0.00 | 0.00 | 0.00 | 77 | 1011.2 |
| 20260505013416 | 23 | 202 | 4.8 | 4.8 | 0.00 | 0.00 | 0.00 | 78 | 1011.1 |
| 20260505012914 | 23 | 132 | 3.2 | 4.8 | 0.00 | 0.00 | 0.00 | 77 | 1011.2 |
| 20260505012411 | 23 | 211 | 3.2 | 6.4 | 0.00 | 0.00 | 0.00 | 77 | 1010.9 |
| 20260505011908 | 23 | 219 | 3.2 | 4.8 | 0.00 | 0.00 | 0.00 | 77 | 1010.8 |
| 20260505011404 | 23 | 179 | 3.2 | 6.4 | 0.00 | 0.00 | 0.00 | 77 | 1010.8 |
| 20260505010901 | 23 | 206 | 1.6 | 3.2 | 0.00 | 0.00 | 0.00 | 76 | 1010.9 |
| 20260505010357 | 23 | 216 | 3.2 | 6.4 | 0.00 | 0.00 | 0.00 | 76 | 1011.1 |
| 20260505005853 | 23 | 195 | 3.2 | 6.4 | 0.00 | 0.00 | 0.00 | 75 | 1011.1 |
| 20260505005350 | 23 | 221 | 1.6 | 4.8 | 0.00 | 0.00 | 0.00 | 75 | 1011.1 |
| 20260505004848 | 23 | 202 | 3.2 | 4.8 | 0.00 | 0.00 | 0.00 | 74 | 1011.0 |
| 20260505004343 | 24 | 195 | 3.2 | 6.4 | 0.00 | 0.00 | 0.00 | 73 | 1010.9 |
| 20260505003841 | 24 | 157 | 3.2 | 11.3 | 0.00 | 0.00 | 0.00 | 73 | 1010.9 |
| 20260505003338 | 24 | 196 | 8.0 | 12.9 | 0.00 | 0.00 | 0.00 | 72 | 1010.9 |
| 20260505002834 | 24 | 166 | 1.6 | 11.3 | 0.00 | 0.00 | 0.00 | 72 | 1011.0 |
| 20260505002331 | 25 | 219 | 3.2 | 4.8 | 0.00 | 0.00 | 0.00 | 71 | 1011.1 |
| 20260505001829 | 25 | 151 | 3.2 | 6.4 | 0.00 | 0.00 | 0.00 | 71 | 1010.9 |
| 20260505001326 | 25 | 195 | 6.4 | 12.9 | 0.00 | 0.00 | 0.00 | 71 | 1010.8 |
| 20260505000823 | 25 | 222 | 3.2 | 11.3 | 0.00 | 0.00 | 0.00 | 70 | 1010.9 |
| 20260505000321 | 25 | 200 | 1.6 | 6.4 | 0.00 | 0.00 | 0.00 | 70 | 1011.2 |
| 20260504235817 | 25 | 195 | 3.2 | 9.7 | 0.00 | 0.00 | 0.00 | 70 | 1011.2 |
| 20260504235314 | 25 | 179 | 4.8 | 6.4 | 0.00 | 0.00 | 0.00 | 70 | 1011.1 |
| 20260504234811 | 25 | 183 | 4.8 | 11.3 | 0.00 | 0.00 | 0.00 | 70 | 1011.1 |
| 20260504234309 | 25 | 237 | 4.8 | 9.7 | 0.00 | 0.00 | 0.00 | 69 | 1011.0 |
| 20260504233805 | 25 | 220 | 6.4 | 6.4 | 0.00 | 0.00 | 0.00 | 68 | 1011.0 |
| 20260504233300 | 25 | 196 | 1.6 | 6.4 | 0.00 | 0.00 | 0.00 | 68 | 1011.3 |
| 20260504232758 | 25 | 214 | 4.8 | 9.7 | 0.00 | 0.00 | 0.00 | 68 | 1011.1 |
| 20260504232255 | 26 | 223 | 3.2 | 4.8 | 0.00 | 0.00 | 0.00 | 67 | 1011.3 |
| 20260504231752 | 26 | 147 | 8.0 | 14.5 | 0.00 | 0.00 | 0.00 | 66 | 1011.2 |
| 20260504231248 | 26 | 238 | 3.2 | 11.3 | 0.00 | 0.00 | 0.00 | 65 | 1011.3 |
| 20260504230744 | 26 | 237 | 4.8 | 9.7 | 0.00 | 0.00 | 0.00 | 65 | 1011.4 |
| 20260504230242 | 26 | 168 | 8.0 | 17.7 | 0.00 | 0.00 | 0.00 | 64 | 1011.3 |
| 20260504225741 | 26 | 257 | 8.0 | 17.7 | 0.00 | 0.00 | 0.00 | 64 | 1011.6 |
| 20260504225237 | 26 | 222 | 6.4 | 12.9 | 0.00 | 0.00 | 0.00 | 64 | 1011.6 |
| 20260504224734 | 26 | 238 | 6.4 | 12.9 | 0.00 | 0.00 | 0.00 | 63 | 1011.4 |
| 20260504224231 | 26 | 127 | 6.4 | 9.7 | 0.00 | 0.00 | 0.00 | 63 | 1011.6 |
| 20260504223728 | 26 | 238 | 1.6 | 11.3 | 0.00 | 0.00 | 0.00 | 63 | 1011.5 |
| 20260504223223 | 26 | 154 | 9.7 | 12.9 | 0.00 | 0.00 | 0.00 | 62 | 1011.5 |
| 20260504222721 | 26 | 187 | 6.4 | 11.3 | 0.00 | 0.00 | 0.00 | 62 | 1011.6 |
| 20260504222217 | 27 | 208 | 3.2 | 6.4 | 0.00 | 0.00 | 0.00 | 61 | 1011.9 |